This is the latest recevied weather packets stored in our database for station/object KG4GJX. If no packets are shown the sender has not sent any weather packets the latest 10 day(s).
| Time | Temp. | Humidity | Pressure | Rain* | Wind** | Luminosity | Snow |
|---|---|---|---|---|---|---|---|
| 1778071670 | 17.78° C | 100% | 1012.5 hPa | 3.56 mm | - | - | - |
| 1778071008 | 18.33° C | 99% | 1012.5 hPa | 0.51 mm | - | - | - |
| 1778070346 | 18.33° C | 97% | 1012.1 hPa | 0.25 mm | - | - | - |
| 1778069683 | 18.89° C | 96% | 1011.8 hPa | 0 mm | - | - | - |
| 1778069021 | 18.89° C | 94% | 1012.1 hPa | 0 mm | - | - | - |
| 1778068359 | 18.89° C | 92% | 1011.8 hPa | 0 mm | - | - | - |
| 1778067696 | 19.44° C | 90% | 1011.5 hPa | 0 mm | - | - | - |
| 1778067034 | 19.44° C | 85% | 1011.8 hPa | 0 mm | - | - | - |
| 1778066372 | 19.44° C | 84% | 1011.1 hPa | 0 mm | - | - | - |
| 1778065709 | 19.44° C | 83% | 1011.5 hPa | 0 mm | - | - | - |
| 1778065047 | 19.44° C | 83% | 1011.1 hPa | 0 mm | - | - | - |
| 1778064384 | 19.44° C | 81% | 1010.8 hPa | 0 mm | - | - | - |
| 1778063722 | 20° C | 80% | 1010.8 hPa | 0 mm | - | - | - |
| 1778063059 | 20° C | 79% | 1011.1 hPa | 0 mm | - | - | - |
| 1778062397 | 20° C | 79% | 1011.1 hPa | 0 mm | - | - | - |
| 1778061734 | 20° C | 78% | 1010.8 hPa | 0 mm | - | - | - |
| 1778061072 | 20° C | 77% | 1010.4 hPa | 0 mm | - | - | - |
| 1778060410 | 20° C | 76% | 1010.1 hPa | 0 mm | - | - | - |
| 1778059748 | 20° C | 75% | 1010.1 hPa | 0 mm | - | - | - |
| 1778059085 | 20° C | 74% | 1010.1 hPa | 0 mm | - | - | - |
| 1778058423 | 20° C | 73% | 1010.4 hPa | 0 mm | - | - | - |
| 1778057760 | 20.56° C | 72% | 1010.4 hPa | 0 mm | - | - | - |
| 1778057098 | 20° C | 71% | 1010.4 hPa | 0 mm | - | - | - |
| 1778056435 | 20° C | 71% | 1010.1 hPa | 0 mm | - | - | - |
| 1778055773 | 20.56° C | 70% | 1010.1 hPa | 0 mm | - | - | - |
* Rain latest hour (hover to see other rain measurements)
** Current wind speed in m/s (hover to see current wind gust speed)